DW5657 Weather Reports


Display with metric or nautical units.
time (UTC)temp
F
wind
direction
speed
MPH
gust
MPH
rain 1hr
in
rain 24hr
in
rain mn
in
humidity
%
barometer
mb
20260903092205 79 49 0.0 0.0 0.00 0.00 0.00 81 1014.8
20260903091704 79 49 0.0 0.0 0.00 0.00 0.00 80 1014.8
20260903090704 79 49 0.0 0.0 0.00 0.00 0.00 80 1014.8
20260903090204 79 48 0.0 0.0 0.00 0.00 0.00 80 1014.8
20260903085704 79 49 0.0 0.0 0.00 0.00 0.00 80 1014.8
20260903085204 79 49 0.0 0.0 0.00 0.00 0.00 80 1014.9
20260903084704 79 49 0.0 0.0 0.00 0.00 0.00 80 1014.8
20260903084204 79 50 0.0 0.0 0.00 0.00 0.00 80 1014.8
20260903083704 79 51 0.0 0.0 0.00 0.00 0.00 80 1014.7
20260903083203 79 50 0.0 0.0 0.00 0.00 0.00 79 1014.7
20260903082204 79 49 0.0 0.0 0.00 0.00 0.00 79 1014.7
20260903081703 80 48 0.0 0.0 0.00 0.00 0.00 78 1014.7
20260903081204 80 49 0.0 0.0 0.00 0.00 0.00 79 1014.6
20260903080703 80 49 0.0 0.0 0.00 0.00 0.00 78 1014.7
20260903075704 80 51 0.0 0.0 0.00 0.00 0.00 78 1014.7
20260903074704 80 62 0.0 0.0 0.00 0.00 0.00 78 1014.7
20260903074204 80 59 0.0 0.0 0.00 0.00 0.00 78 1014.6
20260903073203 80 61 0.0 0.0 0.00 0.00 0.00 78 1014.6
20260903072203 80 63 0.0 0.0 0.00 0.00 0.00 78 1014.5
20260903071203 80 55 0.0 0.0 0.00 0.00 0.00 77 1014.5
20260903070704 80 60 0.0 0.0 0.00 0.00 0.00 77 1014.5
20260903070204 80 54 0.0 0.0 0.00 0.00 0.00 77 1014.5
20260903065204 81 60 0.0 0.0 0.00 0.00 0.00 77 1014.6
20260903064704 81 52 0.0 0.0 0.00 0.00 0.00 77 1014.6
20260903063704 81 43 0.0 0.0 0.00 0.00 0.00 77 1014.5
20260903063204 81 13 0.0 0.0 0.00 0.00 0.00 76 1014.6
20260903062703 81 22 0.0 0.0 0.00 0.00 0.00 76 1014.6
20260903062204 81 17 0.0 0.0 0.00 0.00 0.00 76 1014.6
20260903061704 81 0 0.0 0.0 0.00 0.00 0.00 76 1014.6
20260903061204 81 8 0.0 0.0 0.00 0.00 0.00 76 1014.5
20260903060704 81 13 0.0 0.0 0.00 0.00 0.00 76 1014.5
20260903060204 81 2 0.0 0.0 0.00 0.00 0.00 76 1014.5
20260903055704 81 0 0.0 0.0 0.00 0.00 0.00 76 1014.5
20260903055204 81 4 0.0 0.0 0.00 0.00 0.00 76 1014.5
20260903054204 81 12 0.0 0.0 0.00 0.00 0.00 75 1014.5
20260903053704 82 44 0.0 0.0 0.00 0.00 0.00 75 1014.5
20260903052704 82 49 0.0 0.0 0.00 0.00 0.00 75 1014.4
20260903052205 82 45 0.0 0.0 0.00 0.00 0.00 75 1014.4
20260903051205 82 54 0.0 0.0 0.00 0.00 0.00 74 1014.4
20260903050704 82 49 0.0 0.0 0.00 0.00 0.00 74 1014.4
20260903050204 82 50 0.0 0.0 0.00 0.00 0.00 74 1014.4
20260903045704 82 49 0.0 0.0 0.00 0.00 0.00 74 1014.4
20260903045204 82 46 0.0 0.0 0.00 0.00 0.00 74 1014.3
20260903044704 82 46 0.0 0.0 0.00 0.00 0.00 73 1014.3
20260903043704 83 44 0.0 0.0 0.00 0.00 0.00 73 1014.3
20260903043204 83 43 0.0 0.0 0.00 0.00 0.00 73 1014.2
20260903042704 83 42 0.0 0.0 0.00 0.00 0.00 72 1014.3
20260903042203 83 41 0.0 0.0 0.00 0.00 0.00 72 1014.3
20260903041204 83 40 0.0 0.0 0.00 0.00 0.00 72 1014.3
20260903040704 83 40 0.0 0.0 0.00 0.00 0.00 71 1014.3
20260903040204 83 36 0.0 0.0 0.00 0.00 0.00 71 1014.3
20260903035205 83 33 0.0 0.0 0.00 0.00 0.00 71 1014.3
20260903034705 83 38 0.0 0.0 0.00 0.00 0.00 71 1014.3
20260903034205 83 38 0.0 0.0 0.00 0.00 0.00 72 1014.3
20260903033704 83 39 0.0 0.0 0.00 0.00 0.00 72 1014.4
20260903033203 83 39 0.0 0.0 0.00 0.00 0.00 71 1014.4
20260903032705 83 39 0.0 0.0 0.00 0.00 0.00 71 1014.3
20260903032204 83 38 0.0 0.0 0.00 0.00 0.00 71 1014.3
20260903031704 83 38 0.0 0.0 0.00 0.00 0.00 71 1014.4
20260903031204 83 37 0.0 0.0 0.00 0.00 0.00 71 1014.4
20260903030703 83 36 0.0 0.0 0.00 0.00 0.00 71 1014.4
20260903025204 84 34 0.0 0.0 0.00 0.00 0.00 70 1014.6
20260903024703 84 36 0.0 0.0 0.00 0.00 0.00 70 1014.6
20260903024204 84 40 0.0 0.0 0.00 0.00 0.00 70 1014.7
20260903023704 84 40 0.0 0.0 0.00 0.00 0.00 70 1014.7
20260903022704 84 39 0.0 0.0 0.00 0.00 0.00 69 1014.7
20260903022204 85 38 0.0 0.0 0.00 0.00 0.00 69 1014.7
20260903021704 85 38 0.0 0.0 0.00 0.00 0.00 69 1014.7
20260903021204 85 39 0.0 0.0 0.00 0.00 0.00 69 1014.7
20260903020705 85 40 0.0 0.0 0.00 0.00 0.00 68 1014.7
20260903020205 85 40 0.0 0.0 0.00 0.00 0.00 68 1014.7
20260903015704 85 40 0.0 0.0 0.00 0.00 0.00 68 1014.7
20260903015204 86 41 0.0 0.0 0.00 0.00 0.00 67 1014.7
20260903014705 86 41 0.0 0.0 0.00 0.00 0.00 67 1014.7
20260903014204 86 41 0.0 0.0 0.00 0.00 0.00 67 1014.6
20260903013704 86 44 0.0 0.0 0.00 0.00 0.00 67 1014.6
20260903013204 87 46 0.0 0.0 0.00 0.00 0.00 66 1014.6
20260903012704 87 45 0.0 0.0 0.00 0.00 0.00 66 1014.5
20260903012204 87 45 0.0 0.0 0.00 0.00 0.00 66 1014.5
20260903011705 87 47 0.0 0.0 0.00 0.00 0.00 65 1014.4
20260903011204 88 51 0.0 0.0 0.00 0.00 0.00 65 1014.3
20260903010705 88 51 0.0 0.0 0.00 0.00 0.00 65 1014.3
20260903010204 88 52 0.0 0.0 0.00 0.00 0.00 64 1014.3
20260903005704 88 218 0.0 0.0 0.00 0.00 0.00 63 1014.3
20260903005204 89 65 0.0 0.0 0.00 0.00 0.00 63 1014.2
20260903004705 89 87 0.0 0.0 0.00 0.00 0.00 63 1014.2
20260903003704 89 131 0.0 3.0 0.00 0.00 0.00 62 1014.1
20260903003204 90 122 0.0 3.0 0.00 0.00 0.00 62 1014.1
20260903002704 90 110 0.0 0.0 0.00 0.00 0.00 61 1014.1
20260903002204 90 133 0.0 2.0 0.00 0.00 0.00 61 1014.0
20260903001704 90 216 1.0 2.0 0.00 0.00 0.00 61 1014.0
20260903001205 90 207 0.0 0.0 0.00 0.00 0.00 60 1014.0
20260903000705 91 215 0.0 1.0 0.00 0.00 0.00 60 1014.0
20260903000204 91 212 0.0 2.0 0.00 0.00 0.00 59 1014.0
20260902235703 91 228 1.0 3.0 0.00 0.00 0.00 59 1014.0
20260902234704 91 195 0.0 1.0 0.00 0.00 0.00 59 1014.0
20260902234204 92 232 0.0 1.0 0.00 0.00 0.00 58 1014.0
20260902233705 92 224 2.0 5.0 0.00 0.00 0.00 58 1013.9
20260902232703 92 220 3.0 5.0 0.00 0.00 0.00 57 1014.0
20260902232204 92 213 1.0 5.0 0.00 0.00 0.00 57 1014.0
20260902231704 93 230 2.0 9.0 0.00 0.00 0.00 56 1014.0
20260902231204 93 222 0.0 5.0 0.00 0.00 0.00 57 1014.0
20260902230705 93 215 2.0 6.0 0.00 0.00 0.00 56 1014.1
20260902230204 93 233 3.0 6.0 0.00 0.00 0.00 55 1014.1
20260902225703 94 223 3.0 8.0 0.00 0.00 0.00 55 1014.2
20260902225205 94 220 3.0 8.0 0.00 0.00 0.00 55 1014.2
20260902224704 94 218 1.0 6.0 0.00 0.00 0.00 55 1014.2
20260902224204 95 213 2.0 6.0 0.00 0.00 0.00 54 1014.1
20260902223704 95 219 1.0 3.0 0.00 0.00 0.00 54 1014.1
20260902223204 95 228 1.0 5.0 0.00 0.00 0.00 53 1014.1
20260902222704 95 286 1.0 2.0 0.00 0.00 0.00 53 1014.1
20260902222205 96 182 1.0 6.0 0.00 0.00 0.00 53 1014.2
20260902221704 96 199 2.0 6.0 0.00 0.00 0.00 52 1014.2
20260902220705 96 293 2.0 5.0 0.00 0.00 0.00 52 1014.2
20260902220204 96 258 3.0 6.0 0.00 0.00 0.00 52 1014.3
20260902215704 96 215 1.0 5.0 0.00 0.00 0.00 52 1014.2
20260902215204 96 244 2.0 7.0 0.00 0.00 0.00 52 1014.3
20260902214704 96 219 3.0 7.0 0.00 0.00 0.00 52 1014.3
20260902214204 96 271 2.0 6.0 0.00 0.00 0.00 52 1014.3
20260902213704 97 202 1.0 6.0 0.00 0.00 0.00 52 1014.2
20260902213204 96 223 3.0 7.0 0.00 0.00 0.00 51 1014.3
20260902212703 96 231 2.0 7.0 0.00 0.00 0.00 51 1014.3
20260902212205 96 228 0.0 2.0 0.00 0.00 0.00 52 1014.3
20260902211704 96 222 1.0 6.0 0.00 0.00 0.00 52 1014.3
20260902211204 96 210 4.0 9.0 0.00 0.00 0.00 51 1014.4
20260902210703 96 214 3.0 10.0 0.00 0.00 0.00 51 1014.4
20260902210204 96 211 1.0 5.0 0.00 0.00 0.00 53 1014.4
20260902205703 96 278 2.0 7.0 0.00 0.00 0.00 53 1014.5
20260902205204 96 210 3.0 6.0 0.00 0.00 0.00 52 1014.5
20260902204704 96 234 3.0 8.0 0.00 0.00 0.00 51 1014.5
20260902204205 96 206 1.0 8.0 0.00 0.00 0.00 52 1014.5
20260902203204 95 205 3.0 10.0 0.00 0.00 0.00 52 1014.6
20260902202705 95 217 3.0 10.0 0.00 0.00 0.00 52 1014.6
20260902202204 95 185 3.0 7.0 0.00 0.00 0.00 52 1014.6
20260902201204 95 212 3.0 7.0 0.00 0.00 0.00 53 1014.6
20260902200703 95 210 1.0 7.0 0.00 0.00 0.00 53 1014.6
20260902200204 95 214 2.0 3.0 0.00 0.00 0.00 52 1014.7
20260902195704 95 231 2.0 7.0 0.00 0.00 0.00 53 1014.8
20260902195204 94 209 2.0 7.0 0.00 0.00 0.00 54 1014.8
20260902194704 94 212 2.0 7.0 0.00 0.00 0.00 53 1014.9
20260902194204 94 233 5.0 8.0 0.00 0.00 0.00 53 1014.9
20260902193704 94 214 3.0 8.0 0.00 0.00 0.00 54 1015.0
20260902192703 94 202 1.0 6.0 0.00 0.00 0.00 55 1015.1
20260902192205 94 223 2.0 9.0 0.00 0.00 0.00 53 1015.3
20260902191704 93 266 3.0 6.0 0.00 0.00 0.00 55 1015.3
20260902191204 93 230 0.0 5.0 0.00 0.00 0.00 55 1015.3
20260902190704 93 220 1.0 5.0 0.00 0.00 0.00 55 1015.4
20260902190204 93 218 1.0 3.0 0.00 0.00 0.00 54 1015.5
20260902185705 93 225 1.0 7.0 0.00 0.00 0.00 53 1015.5
20260902185205 93 226 3.0 7.0 0.00 0.00 0.00 53 1015.5
20260902184704 93 277 1.0 3.0 0.00 0.00 0.00 55 1015.5
20260902184204 93 244 0.0 2.0 0.00 0.00 0.00 55 1015.6
20260902183204 93 211 2.0 8.0 0.00 0.00 0.00 55 1015.6
20260902182702 93 214 2.0 6.0 0.00 0.00 0.00 54 1015.6
20260902182203 93 243 1.0 3.0 0.00 0.00 0.00 57 1015.7
20260902181203 93 321 1.0 5.0 0.00 0.00 0.00 57 1015.7
20260902180703 94 219 3.0 6.0 0.00 0.00 0.00 57 1015.8
20260902180202 94 221 3.0 5.0 0.00 0.00 0.00 58 1015.9
20260902175703 94 327 1.0 6.0 0.00 0.00 0.00 57 1016.0
20260902175203 94 211 3.0 6.0 0.00 0.00 0.00 56 1016.0
20260902174703 94 252 1.0 6.0 0.00 0.00 0.00 58 1016.0
20260902174202 93 213 2.0 5.0 0.00 0.00 0.00 57 1016.1
20260902173703 94 251 2.0 8.0 0.00 0.00 0.00 56 1016.2
20260902173203 94 261 3.0 9.0 0.00 0.00 0.00 55 1016.2
20260902172203 94 228 3.0 7.0 0.00 0.00 0.00 54 1016.3
20260902171703 94 205 3.0 7.0 0.00 0.00 0.00 55 1016.3
20260902171203 94 203 2.0 3.0 0.00 0.00 0.00 55 1016.3
20260902170704 93 215 2.0 9.0 0.00 0.00 0.00 55 1016.3
20260902170203 93 257 2.0 9.0 0.00 0.00 0.00 56 1016.3
20260902165703 93 310 2.0 6.0 0.00 0.00 0.00 56 1016.4
20260902165202 93 165 4.0 10.0 0.00 0.00 0.00 55 1016.4
20260902164703 93 221 4.0 8.0 0.00 0.00 0.00 55 1016.5
20260902163703 93 217 2.0 6.0 0.00 0.00 0.00 57 1016.5
20260902163203 92 169 3.0 9.0 0.00 0.00 0.00 58 1016.5
20260902162702 92 215 2.0 5.0 0.00 0.00 0.00 58 1016.5
20260902162203 92 266 4.0 7.0 0.00 0.00 0.00 58 1016.5
20260902161703 92 195 2.0 7.0 0.00 0.00 0.00 60 1016.5
20260902161205 92 220 2.0 8.0 0.00 0.00 0.00 59 1016.6
20260902160703 91 218 2.0 7.0 0.00 0.00 0.00 59 1016.6
20260902160203 91 216 3.0 8.0 0.00 0.00 0.00 60 1016.7
20260902155704 91 232 3.0 8.0 0.00 0.00 0.00 60 1016.8
20260902155203 91 201 4.0 8.0 0.00 0.00 0.00 61 1016.8
20260902154703 91 214 1.0 6.0 0.00 0.00 0.00 62 1016.8
20260902154203 90 201 1.0 6.0 0.00 0.00 0.00 63 1016.9
20260902153703 90 239 3.0 7.0 0.00 0.00 0.00 63 1017.0
20260902152203 90 210 2.0 8.0 0.00 0.00 0.00 63 1016.9
20260902151703 89 224 2.0 5.0 0.00 0.00 0.00 64 1017.0
20260902151204 89 237 1.0 7.0 0.00 0.00 0.00 64 1017.0
20260902150703 89 232 3.0 7.0 0.00 0.00 0.00 64 1017.1
20260902145703 88 293 1.0 5.0 0.00 0.00 0.00 65 1017.0
20260902145204 88 221 1.0 5.0 0.00 0.00 0.00 67 1016.9
20260902144704 87 232 3.0 7.0 0.00 0.00 0.00 66 1017.0
20260902144203 87 212 2.0 6.0 0.00 0.00 0.00 67 1017.0
20260902143703 87 283 1.0 3.0 0.00 0.00 0.00 68 1017.0
20260902143203 86 253 1.0 3.0 0.00 0.00 0.00 69 1017.0
20260902142705 86 236 2.0 7.0 0.00 0.00 0.00 69 1017.0
20260902142203 86 247 4.0 8.0 0.00 0.00 0.00 69 1016.9
20260902141703 85 212 1.0 8.0 0.00 0.00 0.00 70 1016.9
20260902140704 85 214 1.0 6.0 0.00 0.00 0.00 73 1017.0
20260902134704 83 221 2.0 5.0 0.00 0.00 0.00 73 1017.0
20260902134203 83 224 5.0 6.0 0.00 0.00 0.00 74 1017.0
20260902133704 83 235 2.0 3.0 0.00 0.00 0.00 74 1016.9
20260902133203 82 222 3.0 7.0 0.00 0.00 0.00 75 1017.0
20260902132703 82 228 1.0 6.0 0.00 0.00 0.00 75 1016.9
20260902132203 82 216 2.0 6.0 0.00 0.00 0.00 76 1016.9
20260902131704 81 213 0.0 5.0 0.00 0.00 0.00 76 1016.9
20260902131203 81 219 1.0 5.0 0.00 0.00 0.00 77 1016.9
20260902130703 81 224 1.0 5.0 0.00 0.00 0.00 77 1016.9
20260902130203 81 218 0.0 3.0 0.00 0.00 0.00 77 1016.9
20260902125703 80 234 1.0 5.0 0.00 0.00 0.00 77 1016.9
20260902125203 80 219 0.0 2.0 0.00 0.00 0.00 78 1016.9
20260902124703 80 219 2.0 5.0 0.00 0.00 0.00 78 1016.8
20260902124203 79 218 1.0 5.0 0.00 0.00 0.00 79 1016.8
20260902123703 79 216 1.0 2.0 0.00 0.00 0.00 79 1016.7
20260902123203 79 236 0.0 3.0 0.00 0.00 0.00 80 1016.7
20260902122703 78 198 1.0 5.0 0.00 0.00 0.00 80 1016.7
20260902122204 78 222 1.0 5.0 0.00 0.00 0.00 81 1016.7
20260902121703 78 62 2.0 5.0 0.00 0.00 0.00 81 1016.6
20260902120203 77 46 1.0 6.0 0.00 0.00 0.00 83 1016.6
20260902115703 76 43 1.0 3.0 0.00 0.00 0.00 83 1016.6
20260902115204 76 40 0.0 3.0 0.00 0.00 0.00 83 1016.5
20260902114704 76 38 0.0 2.0 0.00 0.00 0.00 83 1016.4
20260902114203 76 38 0.0 1.0 0.00 0.00 0.00 84 1016.4
20260902113703 76 44 0.0 1.0 0.00 0.00 0.00 84 1016.3
20260902112704 76 50 0.0 0.0 0.00 0.00 0.00 84 1016.2
20260902112203 76 51 0.0 0.0 0.00 0.00 0.00 84 1016.2
20260902111703 76 53 0.0 0.0 0.00 0.00 0.00 84 1016.1
20260902111203 76 53 0.0 0.0 0.00 0.00 0.00 84 1016.1
20260902110703 76 53 0.0 0.0 0.00 0.00 0.00 84 1016.1
20260902110203 76 53 0.0 0.0 0.00 0.00 0.00 83 1016.1
20260902105703 76 51 0.0 0.0 0.00 0.00 0.00 83 1016.1
20260902105203 76 51 0.0 0.0 0.00 0.00 0.00 83 1016.2
20260902104704 76 51 0.0 0.0 0.00 0.00 0.00 83 1016.2
20260902104204 76 50 0.0 0.0 0.00 0.00 0.00 83 1016.1
20260902103703 76 48 0.0 0.0 0.00 0.00 0.00 83 1016.2
20260902103203 76 47 0.0 0.0 0.00 0.00 0.00 83 1016.2
20260902102703 76 48 0.0 0.0 0.00 0.00 0.00 83 1016.1
20260902102203 76 48 0.0 0.0 0.00 0.00 0.00 83 1016.1
20260902101703 77 48 0.0 0.0 0.00 0.00 0.00 82 1016.0
20260902101203 77 49 0.0 0.0 0.00 0.00 0.00 82 1016.1
20260902100703 77 49 0.0 0.0 0.00 0.00 0.00 82 1016.1
20260902100203 77 48 0.0 0.0 0.00 0.00 0.00 82 1016.0
20260902095703 77 47 0.0 0.0 0.00 0.00 0.00 82 1016.0
20260902095204 77 47 0.0 0.0 0.00 0.00 0.00 82 1016.0
20260902094705 77 47 0.0 0.0 0.00 0.00 0.00 81 1016.0
20260902094203 77 46 0.0 0.0 0.00 0.00 0.00 81 1016.0
20260902093703 77 46 0.0 0.0 0.00 0.00 0.00 81 1016.0